Regional Weather Roundup
Issued by NWS Kansas City/Pleasant Hill, MO

Home | Current Version | Previous Version | Graphics & Text | Print | Product List | Glossary Off
Versions: 1 2 3 4 5 6 7 8 9 10 11 12 13 14 15 16 17 18 19 20 21 22 23 24 25 26 27

000
ASUS43 KEAX 042110
RWREAX

WEATHER ROUNDUP FOR EASTERN KANSAS AND NORTHWEST MISSOURI
NATIONAL WEATHER SERVICE KANSAS CITY/PLEASANT HILL MO
400 PM CDT WED MAY 04 2016

KSZ040-057-103>105-MOZ028-029-037-043-042200-
...KANSAS CITY METROPOLITAN AREA...

CITY           SKY/WX    TMP DP  RH WIND       PRES   REMARKS
K.C. INTL      MOSUNNY   69  38  32 N13G25    29.98F
K.C. DOWNTOWN  SUNNY     71  39  31 N9G20     29.96F
LEES SUMMIT    SUNNY     69  39  33 N15G26    29.97F
OLATHE - IXD   SUNNY     69  39  33 NW16G28   29.99F
OLATHE - OJC   SUNNY     69  36  29 N17       29.98F
LAWRENCE       SUNNY     71  39  31 N16       29.99F

$$

MOZ001>008-011>017-020>025-030>033-038>040-044>046-053-054-042200-
...NORTHERN AND CENTRAL MISSOURI...

CITY           SKY/WX    TMP DP  RH WIND       PRES   REMARKS
ST. JOSEPH     SUNNY     70  36  28 N17G24    29.99F
MOSBY          CLEAR     68  36  30 NW15G24   29.97S
WARRENSBURG    SUNNY     68  36  30 NW14G23   29.95S
WHITEMAN AFB   MOSUNNY   69  39  32 N22       29.93F
CLINTON        SUNNY     70  41  35 N15       29.95S
SEDALIA        MOSUNNY   70  38  31 N23       29.94F
WARSAW         NOT AVBL
CHILLICOTHE      N/A     68  39  34 N12G20    29.96S
KIRKSVILLE     SUNNY     66  36  32 N16       29.94S

$$

MOZ041-047>049-056>058-063>065-088>090-097-042200-
...EASTERN AND SOUTHERN MISSOURI...

CITY           SKY/WX    TMP DP  RH WIND       PRES   REMARKS
ST. LOUIS INTL MOSUNNY   69  40  34 NW20G29   29.84S
SPIRIT OF STL  MOSUNNY   68  39  34 N22G30    29.84R
COLUMBIA       SUNNY     68  35  29 N17G30    29.90S
JEFFERSON CITY MOSUNNY   69  36  29 NW15      29.88F
ROLLA          SUNNY     66  38  35 N21G29    29.87S
OSAGE BEACH    MOSUNNY   70  36  28 NW9G21    29.90F
SPRINGFIELD    SUNNY     71  40  32 N18G26    29.92S
BRANSON        SUNNY     72  36  26 NW12G29   29.92R
JOPLIN         SUNNY     71  40  32 N16       29.96F
WEST PLAINS    MOSUNNY   72  40  31 NW15G26   29.86S

$$

IAZ060-094-KSZ022-034>040-054-083-096-NEZ052-066-093-042200-
...KANSAS...SOUTHEAST NEBRASKA AND IOWA...

CITY           SKY/WX    TMP DP  RH WIND       PRES   REMARKS
TOPEKA         SUNNY     71  39  31 N16G22    30.00F
MANHATTAN      SUNNY     72  34  24 N8G22     30.03F
EMPORIA        SUNNY     71  35  26 NW14G24   30.01F
CHANUTE        SUNNY     73  36  25 NW13      29.99F
WICHITA        SUNNY     74  31  20 NW16G29   30.03F
OMAHA          MOSUNNY   69  38  32 N20       30.02S
LINCOLN        SUNNY     71  33  24 N13       30.05F
FALLS CITY     SUNNY     70  37  29 N16G23    30.00F
LAMONI         SUNNY     64  39  39 NW15G28   29.97F
DES MOINES     MOSUNNY   68  31  25 NW13G22   29.95F

$$





USA.gov is the U.S. government's official web portal to all federal, state and local government web resources and services.